Preview of NWS' New Version of Forecast
This preview is not operational and should not be used for support decisions.

Regional Weather Roundup (RWR)

Issued by National Weather Service (NWS)

                            
000
ASUS44 KJAN 201810
RWRMS 

MISSISSIPPI HOURLY WEATHER ROUNDUP
NATIONAL WEATHER SERVICE JACKSON MS
100 PM CDT FRI SEP 20 2019

NOTE: "FAIR: INDICATES FEW OR NO CLOUDS BELOW 12,000 FEET WITH NO
SIGNIFICANT WEATHER AND/OR OBSTRUCTIONS TO VISIBILITY.

MSZ001>002-007>008-010>013-018>021-025>028-034>036-201900-
NORTHWEST MISSISSIPPI
  
CITY           SKY/WX    TMP DP  RH WIND       PRES   REMARKS
BATESVILLE     FAIR      88  64  45 S14G20    30.16F                  
CLARKSDALE       N/A     86  70  58 SE15      30.16S HX  90           
CLEVELAND      FAIR      87  69  54 S12G17    30.13F HX  90           
GREENWOOD      LGT RAIN  87  62  43 S10       30.16F                  
6HR MIN TEMP:  76; 6HR MAX TEMP:  88; 6HR PCP: TRACE;                

GREENVILLE     FAIR      88  69  53 S16G25    30.12F HX  92           
6HR MIN TEMP:  73; 6HR MAX TEMP:  88; 6HR PCP:  0.01;                

OLIVE BRANCH   PTSUNNY   88  64  45 S12G21    30.17F                  
OXFORD         FAIR      86  59  39 S10       30.19F                  
TUNICA           N/A     82  68  61 S14G20    30.16F                  
WINONA         FAIR      85  63  48 S9        30.17F                  
$$

MSZ003>006-009-014>017-022>024-029>033-037>039-201900-
NORTHEAST MISSISSIPPI
  
CITY           SKY/WX    TMP DP  RH WIND       PRES   REMARKS
ABERDEEN       FAIR      84  66  54 VRB5G13   30.21F                  
COLUMBUS AFB   FAIR      84  61  45 S8        30.20F                  
6HR MIN TEMP:  70; 6HR MAX TEMP:  84;                                

CORINTH        FAIR      84  57  39 S8G14     30.20S                  
GOLDN TRIANGLE FAIR      85  62  46 S15       30.20F                  
STARKVILLE     FAIR      82  61  47 SE12      30.21F                  
TUPELO         FAIR      87  60  40 S10       30.20F                  
6HR MIN TEMP:  74; 6HR MAX TEMP:  87;                                

$$

MSZ040-058-201900-
CENTRAL MISSISSIPPI
  
CITY           SKY/WX    TMP DP  RH WIND       PRES   REMARKS
JACKSON INTL   FAIR      87  62  43 S9        30.15F                  
6HR MIN TEMP:  73; 6HR MAX TEMP:  88;                                

JACKSON HAWKNS FAIR      87  65  47 S14       30.16F                  
6HR MIN TEMP:  73; 6HR MAX TEMP:  87;                                

MADISON        FAIR      84  61  45 SE7       30.17F                  
MERIDIAN KEY   FAIR      87  61  41 VRB6      30.18F                  
6HR MIN TEMP:  72; 6HR MAX TEMP:  87;                                

MERIDIAN NAS   PTSUNNY   86  58  38 SE9       30.19F                  
6HR MIN TEMP:  68; 6HR MAX TEMP:  87;                                

RAYMOND        FAIR      88  68  51 SE13G20   30.14F HX  91           
VICKSBURG VKS  PTCLDY    88  70  55 SE10      30.12F HX  92           
$$

MSZ059>079-201900-
SOUTH MISSISSIPPI
  
CITY           SKY/WX    TMP DP  RH WIND       PRES   REMARKS
BROOKHAVEN     FAIR      86  68  54 NE5G13    30.16F                  
HATTIESBURG    FAIR      86  63  45 E10       30.16F                  
6HR MIN TEMP:  70; 6HR MAX TEMP:  86;                                

LAUREL         CLEAR     85  62  45 SE10      30.17F                  
MCCOMB         FAIR      88  68  51 SE10G20   30.13F HX  91           
6HR MIN TEMP:  73; 6HR MAX TEMP:  88;                                

NATCHEZ        FAIR      85  72  65 S12       30.12F HX  91           
6HR MIN TEMP:  73; 6HR MAX TEMP:  86;                                

PINE BELT      FAIR      85  65  51 SE12      30.18F                  
$$

MSZ080>082-201900-
COASTAL MISSISSIPPI
  
CITY           SKY/WX    TMP DP  RH WIND       PRES   REMARKS
BAY ST LOUIS   MOSUNNY   86  72  62 SE13G22   30.12  HX  92           
BILOXI         FAIR      87  68  54 SE15      30.13F HX  90           
6HR MIN TEMP:  75; 6HR MAX TEMP:  87;                                

PASCAGOULA     PTSUNNY   87  68  52 E9        30.14F HX  90           
6HR MIN TEMP:  72; 6HR MAX TEMP:  87;                                

GULFPORT       FAIR      87  67  51 E18       30.13F HX  90           
6HR MIN TEMP:  76; 6HR MAX TEMP:  87;                                

$$

LAZ007>009-015>016-023>026-201900-
NORTHEAST LOUISIANA
  
CITY           SKY/WX    TMP DP  RH WIND       PRES   REMARKS
BASTROP        MOCLDY    87  70  57 SE6       30.12S HX  91           
TALLULAH/VBURG FAIR      90  69  50 SE13      30.13F HX  94           
6HR MIN TEMP:  74; 6HR MAX TEMP:  90;                                

VIDALIA        FAIR     N/A N/A N/A E12       30.10F                  
$$